EW9043 Weather Reports


Display with metric or nautical units.
time (UTC)temp
F
wind
direction
speed
MPH
gust
MPH
rain 1hr
in
rain 24hr
in
rain mn
in
humidity
%
barometer
mb
20180625095432 62 47 8.0 0.0 0.00 0.00 0.05 88 1015.8
20180625093931 62 39 65.0 0.0 0.00 0.00 0.05 87 1016.1
20180625092429 64 14 9.0 0.0 0.00 0.00 0.00 80 1016.2
20180625090927 65 320 7.0 0.0 0.00 0.00 0.00 81 1016.2
20180625085424 67 43 6.0 0.0 0.00 0.00 0.00 80 1016.0
20180625083922 67 345 5.0 0.0 0.00 0.00 0.00 80 1015.7
20180625082424 65 10 6.0 0.0 0.00 0.00 0.00 82 1015.6
20180625080922 66 355 4.0 0.0 0.00 0.00 0.00 80 1015.4
20180625075418 66 8 5.0 0.0 0.00 0.00 0.00 79 1015.2
20180625073917 66 10 6.0 0.0 0.00 0.00 0.00 78 1015.0
20180625072413 65 10 5.0 0.0 0.00 0.00 0.00 78 1014.9
20180625070912 65 22 4.0 0.0 0.00 0.00 0.00 78 1014.8
20180625065410 66 23 2.0 0.0 0.00 0.00 0.00 75 1014.7
20180625063908 64 25 5.0 0.0 0.00 0.00 0.00 76 1014.6
20180625062407 64 35 2.0 0.0 0.00 0.00 0.00 76 1014.5
20180625060906 64 34 0.0 0.0 0.00 0.00 0.00 75 1014.4
20180625055404 64 35 0.0 0.0 0.00 0.00 0.00 76 1014.3
20180625053904 64 35 0.0 0.0 0.00 0.00 0.00 76 1014.1
20180625052404 63 34 0.0 0.0 0.00 0.00 0.00 77 1014.0
20180625050906 62 33 0.0 0.0 0.00 0.00 0.00 79 1014.0
20180625045404 61 35 1.0 0.0 0.00 0.00 0.00 80 1014.1
20180625043902 61 35 0.0 0.0 0.00 0.00 0.00 81 1014.2
20180625042403 60 34 0.0 0.0 0.00 0.00 0.00 82 1014.2
20180625040907 60 35 0.0 0.0 0.00 0.00 0.00 82 1014.1
20180625035404 60 35 0.0 0.0 0.00 0.00 0.00 82 1014.0
20180625033901 60 35 0.0 0.0 0.00 0.00 0.00 81 1014.0
20180625032358 60 33 0.0 0.0 0.00 0.00 0.00 81 1013.7
20180625030858 62 35 0.0 0.0 0.00 0.00 0.00 78 1013.5
20180625025356 62 35 0.0 0.0 0.00 0.00 0.00 77 1013.3
20180625023858 62 34 0.0 0.0 0.00 0.00 0.00 77 1013.3
20180625022355 62 34 0.0 0.0 0.00 0.00 0.00 75 1013.3
20180625020854 62 34 0.0 0.0 0.00 0.00 0.00 76 1013.4
20180625015352 62 35 0.0 0.0 0.00 0.00 0.00 77 1013.3
20180625013855 61 35 1.0 0.0 0.00 0.00 0.00 79 1013.3
20180625012352 60 35 0.0 0.0 0.00 0.00 0.00 80 1013.3
20180625010853 61 33 1.0 0.0 0.00 0.00 0.00 79 1013.4
20180625005348 63 33 0.0 0.0 0.00 0.00 0.00 74 1013.3
20180625003846 63 34 0.0 0.0 0.00 0.00 0.00 74 1013.5
20180625002344 63 35 0.0 0.0 0.00 0.00 0.00 74 1013.6
20180625000846 63 35 0.0 0.0 0.00 0.00 0.00 73 1013.7
20180624235343 63 35 0.0 0.0 0.00 0.00 0.00 73 1013.8
20180624233837 64 35 0.0 0.0 0.00 0.00 0.00 72 1013.9
20180624232338 64 35 0.0 0.0 0.00 0.00 0.00 71 1014.0
20180624230836 64 33 0.0 0.0 0.00 0.00 0.00 69 1014.1
20180624225334 64 33 0.0 0.0 0.00 0.00 0.00 69 1014.1
20180624223832 65 35 0.0 0.0 0.00 0.00 0.00 68 1014.2
20180624222330 65 35 0.0 0.0 0.00 0.00 0.00 68 1014.1
20180624220827 65 35 0.0 0.0 0.00 0.00 0.00 67 1014.3
20180624215325 66 35 0.0 0.0 0.00 0.00 0.00 65 1014.3
20180624213825 67 35 2.0 0.0 0.00 0.00 0.00 63 1014.2
20180624212325 67 35 0.0 0.0 0.00 0.00 0.00 62 1014.4
20180624210825 67 35 0.0 0.0 0.00 0.00 0.00 62 1014.5
20180624205327 67 35 4.0 0.0 0.00 0.00 0.00 61 1014.5
20180624203827 67 33 0.0 0.0 0.00 0.00 0.00 63 1014.5
20180624202324 68 33 2.0 0.0 0.00 0.00 0.00 61 1014.4
20180624200823 68 35 1.0 0.0 0.00 0.00 0.00 61 1014.3
20180624195325 69 27 2.0 0.0 0.00 0.00 0.00 59 1014.2
20180624193824 69 26 1.0 0.0 0.00 0.00 0.00 59 1014.2
20180624192322 70 26 1.0 0.0 0.00 0.00 0.00 58 1014.0
20180624190821 70 26 2.0 0.0 0.00 0.00 0.00 58 1013.9
20180624185324 71 25 0.0 0.0 0.00 0.00 0.00 58 1013.7
20180624183820 72 25 4.0 0.0 0.00 0.00 0.00 56 1013.6
20180624182319 73 15 0.0 0.0 0.00 0.00 0.00 56 1013.7
20180624180819 74 14 2.0 0.0 0.00 0.00 0.00 52 1013.7
20180624175321 75 7 1.0 0.0 0.00 0.00 0.00 51 1013.5
20180624173819 75 7 1.0 0.0 0.00 0.00 0.00 49 1013.6
20180624172317 76 7 1.0 0.0 0.00 0.00 0.00 48 1013.5
20180624170817 77 337 0.0 0.0 0.00 0.00 0.00 47 1013.5
20180624165320 77 337 1.0 0.0 0.00 0.00 0.00 45 1013.6
20180624163815 76 336 0.0 0.0 0.00 0.00 0.00 46 1013.6
20180624162316 76 333 1.0 0.0 0.00 0.00 0.00 45 1013.6
20180624160816 76 329 2.0 0.0 0.00 0.00 0.00 46 1013.6
20180624155314 76 329 4.0 0.0 0.00 0.00 0.00 44 1013.7
20180624153814 76 325 4.0 0.0 0.00 0.00 0.00 44 1013.6
20180624152313 77 319 5.0 0.0 0.00 0.00 0.00 45 1013.7
20180624150813 77 318 5.0 0.0 0.00 0.00 0.00 43 1013.8
20180624145310 78 338 2.0 0.0 0.00 0.00 0.00 42 1013.8
20180624143812 77 357 1.0 0.0 0.00 0.00 0.00 40 1013.9
20180624142308 79 4 0.0 0.0 0.00 0.00 0.00 38 1014.0
20180624140807 79 5 1.0 0.0 0.00 0.00 0.00 38 1014.1
20180624135306 79 351 0.0 0.0 0.00 0.00 0.00 39 1014.2
20180624133803 78 350 1.0 0.0 0.00 0.00 0.00 36 1014.3
20180624132305 79 355 0.0 0.0 0.00 0.00 0.00 36 1014.5
20180624130804 78 355 0.0 0.0 0.00 0.00 0.00 36 1014.8
20180624125257 78 354 2.0 0.0 0.00 0.00 0.00 39 1014.9
20180624123756 78 29 2.0 0.0 0.00 0.00 0.00 38 1015.0
20180624122255 79 13 0.0 0.0 0.00 0.00 0.00 39 1015.3
20180624120754 77 16 1.0 0.0 0.00 0.00 0.00 41 1015.4
20180624115251 77 17 1.0 0.0 0.00 0.00 0.00 38 1015.5
20180624113748 77 18 2.0 0.0 0.00 0.00 0.00 41 1015.7
20180624112246 76 19 1.0 0.0 0.00 0.00 0.00 38 1015.8
20180624110743 77 19 0.0 0.0 0.00 0.00 0.00 37 1016.0
20180624105239 76 18 1.0 0.0 0.00 0.00 0.00 38 1016.1
20180624103735 75 33 4.0 0.0 0.00 0.00 0.00 38 1016.2
20180624102234 74 12 4.0 0.0 0.00 0.00 0.00 40 1016.3
20180624100735 74 13 3.0 0.0 0.00 0.00 0.00 43 1016.4